^^
Saratoga-Weather Station Historical Data
Daily Summary for June 07, 2021 Units:  Metric    English   Both
Daily Weekly Monthly Yearly Custom
  High: Low: Average:
Temperature: 21.7 °C 15.8 °C 18.6 °C
Dew Point: 15.5 °C 12.9 °C 14.4 °C
Humidity: 86% 63% 77%
Wind Speed: 14.5km/h 0km/h 2.2km/h
Wind Gust: 16.1km/h - -
Wind- - South
Pressure: 1021.7 hPa 1019.6 hPa -
Precipitation: 0.0 mm    
Historical Graphs
 
 
Tabular Data for June 07, 2021
Time Temperature Dew Point Pressure Wind Wind Speed Wind Gust Humidity Rainfall Rate (Hourly) solar
00:02 16.5 °C 13.4 °C 1021.7 hPa Calm   4.8 km/h 82% 0.0 mm 0 W/m2
00:07 16.6 °C 13.3 °C 1021.7 hPa Calm   1.6 km/h 81% 0.0 mm 0 W/m2
00:12 16.6 °C 13.3 °C 1021.7 hPa NE 1.4 km/h 1.6 km/h 81% 0.0 mm 0 W/m2
00:17 16.6 °C 13.3 °C 1021.7 hPa NE 3.2 km/h 3.2 km/h 81% 0.0 mm 0 W/m2
00:22 16.6 °C 13.1 °C 1021.7 hPa NNE 1.4 km/h 3.2 km/h 80% 0.0 mm 0 W/m2
00:27 16.7 °C 13.2 °C 1021.7 hPa Calm   3.2 km/h 80% 0.0 mm 0 W/m2
00:32 16.7 °C 13.2 °C 1021.7 hPa Calm   1.6 km/h 80% 0.0 mm 0 W/m2
00:37 16.7 °C 13.2 °C 1021.7 hPa Calm   1.6 km/h 80% 0.0 mm 0 W/m2
00:42 16.7 °C 13.2 °C 1021.7 hPa Calm     80% 0.0 mm 0 W/m2
00:47 16.7 °C 13.2 °C 1021.7 hPa Calm   1.6 km/h 80% 0.0 mm 0 W/m2
00:52 16.7 °C 13 °C 1021.7 hPa NE 1.4 km/h 3.2 km/h 79% 0.0 mm 0 W/m2
00:57 16.7 °C 13 °C 1021.7 hPa Calm   4.8 km/h 79% 0.0 mm 0 W/m2
01:02 16.6 °C 12.9 °C 1021.7 hPa ESE 1.4 km/h 3.2 km/h 79% 0.0 mm 0 W/m2
01:07 16.6 °C 13.1 °C 1021.7 hPa NE 1.4 km/h 4.8 km/h 80% 0.0 mm 0 W/m2
01:12 16.6 °C 13.1 °C 1021.7 hPa ENE 1.4 km/h 4.8 km/h 80% 0.0 mm 0 W/m2
01:17 16.6 °C 13.1 °C 1021.3 hPa WNW 3.2 km/h 8 km/h 80% 0.0 mm 0 W/m2
01:22 16.5 °C 13 °C 1021.3 hPa Calm   3.2 km/h 80% 0.0 mm 0 W/m2
01:27 16.5 °C 13 °C 1021.3 hPa WNW 1.4 km/h 8 km/h 80% 0.0 mm 0 W/m2
01:32 16.4 °C 13.1 °C 1021.3 hPa West 1.4 km/h 3.2 km/h 81% 0.0 mm 0 W/m2
01:37 16.3 °C 13 °C 1021.3 hPa Calm   4.8 km/h 81% 0.0 mm 0 W/m2
01:42 16.2 °C 12.9 °C 1021.3 hPa Calm   1.6 km/h 81% 0.0 mm 0 W/m2
01:47 16.2 °C 13.1 °C 1021.3 hPa West 1.4 km/h 4.8 km/h 82% 0.0 mm 0 W/m2
01:52 16.2 °C 13.1 °C 1021.3 hPa Calm   1.6 km/h 82% 0.0 mm 0 W/m2
01:57 16.2 °C 13.1 °C 1021.3 hPa West 1.4 km/h 3.2 km/h 82% 0.0 mm 0 W/m2
02:02 16.1 °C 13 °C 1021.3 hPa Calm   3.2 km/h 82% 0.0 mm 0 W/m2
02:07 16.1 °C 13 °C 1021.3 hPa West 1.4 km/h 3.2 km/h 82% 0.0 mm 0 W/m2
02:12 16 °C 13.1 °C 1021.3 hPa West 1.4 km/h 3.2 km/h 83% 0.0 mm 0 W/m2
02:17 15.9 °C 13 °C 1021.3 hPa Calm   1.6 km/h 83% 0.0 mm 0 W/m2
02:22 15.9 °C 13 °C 1021.3 hPa West 1.4 km/h 3.2 km/h 83% 0.0 mm 0 W/m2
02:27 15.9 °C 13 °C 1021.3 hPa SSW 1.4 km/h 3.2 km/h 83% 0.0 mm 0 W/m2
02:32 15.9 °C 13 °C 1021.3 hPa Calm   1.6 km/h 83% 0.0 mm 0 W/m2
02:37 15.9 °C 13 °C 1021.3 hPa Calm     83% 0.0 mm 0 W/m2
02:42 15.8 °C 13.1 °C 1021.3 hPa SSW 3.2 km/h 3.2 km/h 84% 0.0 mm 0 W/m2
02:47 15.8 °C 13.1 °C 1021.3 hPa WSW 1.4 km/h 1.6 km/h 84% 0.0 mm 0 W/m2
02:52 15.9 °C 13.2 °C 1021.3 hPa WSW 3.2 km/h 3.2 km/h 84% 0.0 mm 0 W/m2
02:57 15.9 °C 13.2 °C 1021.3 hPa Calm     84% 0.0 mm 0 W/m2
03:02 15.8 °C 13.1 °C 1021.3 hPa WSW 1.4 km/h 3.2 km/h 84% 0.0 mm 0 W/m2
03:07 15.8 °C 13.1 °C 1021.3 hPa Calm   1.6 km/h 84% 0.0 mm 0 W/m2
03:12 15.8 °C 13.1 °C 1021.3 hPa NW 3.2 km/h 4.8 km/h 84% 0.0 mm 0 W/m2
03:17 15.9 °C 13.2 °C 1021.3 hPa Calm   3.2 km/h 84% 0.0 mm 0 W/m2
03:22 16 °C 13.3 °C 1021.3 hPa Calm     84% 0.0 mm 0 W/m2
03:27 16 °C 13.5 °C 1021.3 hPa NNW 3.2 km/h 3.2 km/h 85% 0.0 mm 0 W/m2
03:32 16 °C 13.3 °C 1021.3 hPa Calm   1.6 km/h 84% 0.0 mm 0 W/m2
03:37 16 °C 13.3 °C 1021.0 hPa NW 1.4 km/h 6.4 km/h 84% 0.0 mm 0 W/m2
03:42 16.1 °C 13.4 °C 1021.0 hPa Calm   3.2 km/h 84% 0.0 mm 0 W/m2
03:47 16.1 °C 13.4 °C 1021.0 hPa WSW 1.4 km/h 6.4 km/h 84% 0.0 mm 0 W/m2
03:52 16.1 °C 13.4 °C 1021.0 hPa West 1.4 km/h 3.2 km/h 84% 0.0 mm 0 W/m2
03:57 16.1 °C 13.4 °C 1021.0 hPa NW 1.4 km/h 3.2 km/h 84% 0.0 mm 0 W/m2
04:02 16.1 °C 13.6 °C 1021.0 hPa WNW 3.2 km/h 4.8 km/h 85% 0.0 mm 0 W/m2
04:07 16.1 °C 13.6 °C 1021.0 hPa WNW 1.4 km/h 4.8 km/h 85% 0.0 mm 0 W/m2
04:12 16.1 °C 13.6 °C 1021.0 hPa Calm   1.6 km/h 85% 0.0 mm 0 W/m2
04:17 16.1 °C 13.6 °C 1021.0 hPa West 3.2 km/h 6.4 km/h 85% 0.0 mm 0 W/m2
04:22 16.1 °C 13.4 °C 1021.0 hPa WNW 7.9 km/h 11.3 km/h 84% 0.0 mm 0 W/m2
04:27 16.2 °C 13.7 °C 1021.0 hPa WNW 3.2 km/h 4.8 km/h 85% 0.0 mm 0 W/m2
04:32 16.2 °C 13.7 °C 1021.0 hPa West 3.2 km/h 11.3 km/h 85% 0.0 mm 0 W/m2
04:37 16.2 °C 13.5 °C 1021.0 hPa West 3.2 km/h 6.4 km/h 84% 0.0 mm 0 W/m2
04:42 16.2 °C 13.5 °C 1021.0 hPa WNW 1.4 km/h 6.4 km/h 84% 0.0 mm 0 W/m2
04:47 16.2 °C 13.7 °C 1021.0 hPa West 3.2 km/h 4.8 km/h 85% 0.0 mm 0 W/m2
04:52 16.2 °C 13.7 °C 1021.0 hPa NW 1.4 km/h 6.4 km/h 85% 0.0 mm 0 W/m2
04:57 16.2 °C 13.7 °C 1021.0 hPa NW 1.4 km/h 4.8 km/h 85% 0.0 mm 0 W/m2
05:02 16.2 °C 13.7 °C 1021.0 hPa NW 3.2 km/h 4.8 km/h 85% 0.0 mm 0 W/m2
05:08 16.1 °C 13.6 °C 1021.0 hPa WNW 3.2 km/h 12.9 km/h 85% 0.0 mm 0 W/m2
05:13 16.1 °C 13.6 °C 1021.0 hPa WNW 1.4 km/h 9.7 km/h 85% 0.0 mm 0 W/m2
05:18 16.1 °C 13.8 °C 1021.0 hPa WNW 3.2 km/h 6.4 km/h 86% 0.0 mm 0 W/m2
05:23 16.1 °C 13.8 °C 1021.0 hPa NNW 3.2 km/h 8 km/h 86% 0.0 mm 0 W/m2
05:28 16.1 °C 13.8 °C 1021.0 hPa ENE 3.2 km/h 3.2 km/h 86% 0.0 mm 0 W/m2
05:33 16.1 °C 13.8 °C 1021.0 hPa Calm   3.2 km/h 86% 0.0 mm 0 W/m2
05:38 16.1 °C 13.8 °C 1021.0 hPa ENE 3.2 km/h 3.2 km/h 86% 0.0 mm 0 W/m2
05:43 16.1 °C 13.8 °C 1021.0 hPa Calm     86% 0.0 mm 0 W/m2
05:48 16.1 °C 13.8 °C 1021.0 hPa NE 1.4 km/h 4.8 km/h 86% 0.0 mm 5 W/m2
05:53 16.1 °C 13.8 °C 1021.0 hPa Calm   8 km/h 86% 0.0 mm 5 W/m2
05:58 16.1 °C 13.8 °C 1021.0 hPa North 3.2 km/h 4.8 km/h 86% 0.0 mm 7 W/m2
06:03 16.1 °C 13.8 °C 1021.0 hPa NE 3.2 km/h 8 km/h 86% 0.0 mm 7 W/m2
06:08 16.1 °C 13.8 °C 1021.0 hPa NNW 1.4 km/h 6.4 km/h 86% 0.0 mm 9 W/m2
06:13 16.1 °C 13.8 °C 1021.0 hPa WNW 4.7 km/h 11.3 km/h 86% 0.0 mm 11 W/m2
06:18 16.1 °C 13.8 °C 1021.0 hPa West 6.4 km/h 6.4 km/h 86% 0.0 mm 14 W/m2
06:23 16.1 °C 13.8 °C 1021.0 hPa Calm   8 km/h 86% 0.0 mm 16 W/m2
06:28 16.1 °C 13.8 °C 1021.0 hPa WNW 4.7 km/h 4.8 km/h 86% 0.0 mm 19 W/m2
06:33 16.2 °C 13.9 °C 1020.7 hPa North 1.4 km/h 4.8 km/h 86% 0.0 mm 23 W/m2
06:38 16.2 °C 13.9 °C 1020.7 hPa NNW 1.4 km/h 3.2 km/h 86% 0.0 mm 28 W/m2
06:43 16.2 °C 13.9 °C 1021.0 hPa Calm   4.8 km/h 86% 0.0 mm 28 W/m2
06:48 16.2 °C 13.7 °C 1021.0 hPa Calm     85% 0.0 mm 30 W/m2
06:53 16.2 °C 13.7 °C 1020.7 hPa Calm     85% 0.0 mm 33 W/m2
06:58 16.2 °C 13.9 °C 1021.0 hPa Calm   4.8 km/h 86% 0.0 mm 33 W/m2
07:03 16.2 °C 13.7 °C 1021.0 hPa Calm   1.6 km/h 85% 0.0 mm 30 W/m2
07:08 16.2 °C 13.7 °C 1021.0 hPa ENE 1.4 km/h 1.6 km/h 85% 0.0 mm 32 W/m2
07:13 16.2 °C 13.9 °C 1021.0 hPa ENE 1.4 km/h 1.6 km/h 86% 0.0 mm 39 W/m2
07:18 16.2 °C 13.7 °C 1021.0 hPa Calm   3.2 km/h 85% 0.0 mm 44 W/m2
07:23 16.2 °C 13.7 °C 1021.0 hPa Calm   4.8 km/h 85% 0.0 mm 51 W/m2
07:28 16.3 °C 13.8 °C 1021.0 hPa ENE 4.7 km/h 4.8 km/h 85% 0.0 mm 60 W/m2
07:33 16.3 °C 13.8 °C 1021.0 hPa East 1.4 km/h 3.2 km/h 85% 0.0 mm 67 W/m2
07:38 16.3 °C 13.8 °C 1021.0 hPa East 4.7 km/h 4.8 km/h 85% 0.0 mm 74 W/m2
07:43 16.4 °C 13.9 °C 1021.0 hPa Calm   4.8 km/h 85% 0.0 mm 84 W/m2
07:48 16.5 °C 14 °C 1021.0 hPa SE 1.4 km/h 3.2 km/h 85% 0.0 mm 88 W/m2
07:53 16.6 °C 14.1 °C 1021.0 hPa North 3.2 km/h 6.4 km/h 85% 0.0 mm 90 W/m2
07:58 16.6 °C 14.1 °C 1021.0 hPa Calm   3.2 km/h 85% 0.0 mm 107 W/m2
08:03 16.7 °C 14.2 °C 1021.0 hPa East 3.2 km/h 4.8 km/h 85% 0.0 mm 98 W/m2
08:08 16.8 °C 14.3 °C 1021.0 hPa Calm   1.6 km/h 85% 0.0 mm 95 W/m2
08:13 16.8 °C 14.3 °C 1021.0 hPa NNE 1.4 km/h 3.2 km/h 85% 0.0 mm 97 W/m2
08:18 16.8 °C 14.1 °C 1021.0 hPa Calm   3.2 km/h 84% 0.0 mm 97 W/m2
08:23 16.9 °C 14.2 °C 1021.0 hPa ESE 1.4 km/h 4.8 km/h 84% 0.0 mm 90 W/m2
08:28 16.9 °C 14.2 °C 1021.0 hPa Calm   3.2 km/h 84% 0.0 mm 76 W/m2
08:33 16.9 °C 14.2 °C 1021.0 hPa Calm   4.8 km/h 84% 0.0 mm 77 W/m2
08:38 16.9 °C 14.2 °C 1021.0 hPa East 3.2 km/h 6.4 km/h 84% 0.0 mm 83 W/m2
08:43 16.8 °C 14.1 °C 1021.0 hPa ENE 1.4 km/h 3.2 km/h 84% 0.0 mm 83 W/m2
08:48 16.8 °C 14.1 °C 1021.0 hPa Calm   4.8 km/h 84% 0.0 mm 86 W/m2
08:53 16.8 °C 14.1 °C 1021.0 hPa Calm   3.2 km/h 84% 0.0 mm 90 W/m2
08:58 16.8 °C 14.3 °C 1021.0 hPa East 3.2 km/h 4.8 km/h 85% 0.0 mm 97 W/m2
09:03 16.8 °C 14.3 °C 1021.0 hPa Calm   3.2 km/h 85% 0.0 mm 97 W/m2
09:08 16.9 °C 14.4 °C 1021.3 hPa East 1.4 km/h 3.2 km/h 85% 0.0 mm 114 W/m2
09:13 16.9 °C 14.4 °C 1021.3 hPa Calm   4.8 km/h 85% 0.0 mm 121 W/m2
09:18 16.9 °C 14.2 °C 1021.0 hPa NNW 3.2 km/h 4.8 km/h 84% 0.0 mm 127 W/m2
09:23 17 °C 14.3 °C 1021.3 hPa NW 3.2 km/h 4.8 km/h 84% 0.0 mm 156 W/m2
09:28 17.1 °C 14.4 °C 1021.3 hPa Calm   3.2 km/h 84% 0.0 mm 202 W/m2
09:33 17.2 °C 14.7 °C 1021.3 hPa Calm     85% 0.0 mm 262 W/m2
09:38 17.3 °C 14.4 °C 1021.3 hPa ENE 1.4 km/h 4.8 km/h 83% 0.0 mm 246 W/m2
09:43 17.5 °C 14.6 °C 1021.3 hPa East 6.4 km/h 9.7 km/h 83% 0.0 mm 229 W/m2
09:48 17.6 °C 14.7 °C 1021.3 hPa Calm   9.7 km/h 83% 0.0 mm 239 W/m2
09:53 17.7 °C 14.6 °C 1021.3 hPa NNE 4.7 km/h 4.8 km/h 82% 0.0 mm 281 W/m2
09:58 17.8 °C 14.7 °C 1021.3 hPa ESE 4.7 km/h 14.5 km/h 82% 0.0 mm 297 W/m2
10:03 18 °C 14.9 °C 1021.3 hPa NNW 3.2 km/h 8 km/h 82% 0.0 mm 325 W/m2
10:08 18.1 °C 14.8 °C 1021.3 hPa ESE 3.2 km/h 14.5 km/h 81% 0.0 mm 350 W/m2
10:14 18.2 °C 14.9 °C 1021.3 hPa East 4.7 km/h 6.4 km/h 81% 0.0 mm 381 W/m2
10:19 18.4 °C 14.9 °C 1021.3 hPa ESE 4.7 km/h 6.4 km/h 80% 0.0 mm 350 W/m2
10:24 18.5 °C 15 °C 1021.3 hPa ESE 7.9 km/h 8 km/h 80% 0.0 mm 320 W/m2
10:29 18.6 °C 15.1 °C 1021.3 hPa East 3.2 km/h 6.4 km/h 80% 0.0 mm 309 W/m2
10:34 18.7 °C 15.2 °C 1021.3 hPa ESE 1.4 km/h 4.8 km/h 80% 0.0 mm 383 W/m2
10:39 18.8 °C 15.1 °C 1021.3 hPa Calm   8 km/h 79% 0.0 mm 360 W/m2
10:44 18.9 °C 15.2 °C 1021.3 hPa ENE 4.7 km/h 6.4 km/h 79% 0.0 mm 396 W/m2
10:49 19 °C 15.5 °C 1021.3 hPa NW 4.7 km/h 8 km/h 80% 0.0 mm 373 W/m2
10:54 19.1 °C 15.4 °C 1021.3 hPa ESE 4.7 km/h 6.4 km/h 79% 0.0 mm 371 W/m2
10:59 19.2 °C 15.3 °C 1021.3 hPa NNW 4.7 km/h 9.7 km/h 78% 0.0 mm 387 W/m2
11:04 19.3 °C 15.4 °C 1021.3 hPa ENE 6.4 km/h 8 km/h 78% 0.0 mm 427 W/m2
11:09 19.3 °C 15.2 °C 1021.3 hPa East 1.4 km/h 11.3 km/h 77% 0.0 mm 401 W/m2
11:14 19.4 °C 15.1 °C 1021.3 hPa ENE 3.2 km/h 16.1 km/h 76% 0.0 mm 338 W/m2
11:19 19.4 °C 15.1 °C 1021.3 hPa ESE 9.7 km/h 12.9 km/h 76% 0.0 mm 360 W/m2
11:24 19.5 °C 15.4 °C 1021.3 hPa East 3.2 km/h 16.1 km/h 77% 0.0 mm 448 W/m2
11:29 19.6 °C 15 °C 1021.3 hPa East 4.7 km/h 9.7 km/h 75% 0.0 mm 471 W/m2
11:34 19.5 °C 14.9 °C 1021.3 hPa NE 4.7 km/h 6.4 km/h 75% 0.0 mm 461 W/m2
11:39 19.7 °C 14.9 °C 1021.3 hPa NE 4.7 km/h 8 km/h 74% 0.0 mm 417 W/m2
11:44 19.6 °C 14.8 °C 1021.3 hPa ENE 4.7 km/h 12.9 km/h 74% 0.0 mm 381 W/m2
11:49 19.6 °C 15 °C 1021.3 hPa East 1.4 km/h 8 km/h 75% 0.0 mm 350 W/m2
11:54 19.7 °C 14.7 °C 1021.3 hPa SSE 1.4 km/h 16.1 km/h 73% 0.0 mm 371 W/m2
11:59 19.7 °C 14.7 °C 1021.3 hPa ENE 7.9 km/h 8 km/h 73% 0.0 mm 390 W/m2
12:04 19.8 °C 14.8 °C 1021.3 hPa East 6.4 km/h 11.3 km/h 73% 0.0 mm 371 W/m2
12:09 19.9 °C 14.9 °C 1021.3 hPa SSE 4.7 km/h 11.3 km/h 73% 0.0 mm 385 W/m2
12:14 19.9 °C 15.1 °C 1021.3 hPa SW 1.4 km/h 6.4 km/h 74% 0.0 mm 457 W/m2
12:19 20.1 °C 15.1 °C 1021.3 hPa NE 6.4 km/h 8 km/h 73% 0.0 mm 499 W/m2
12:24 20.2 °C 15 °C 1021.3 hPa North 3.2 km/h 4.8 km/h 72% 0.0 mm 459 W/m2
12:29 20.3 °C 15.1 °C 1021.0 hPa Calm   8 km/h 72% 0.0 mm 483 W/m2
12:34 20.3 °C 15.1 °C 1021.0 hPa NE 4.7 km/h 6.4 km/h 72% 0.0 mm 529 W/m2
12:39 20.4 °C 15.2 °C 1021.0 hPa East 11.3 km/h 11.3 km/h 72% 0.0 mm 506 W/m2
12:44 20.6 °C 15.2 °C 1021.0 hPa NE 4.7 km/h 12.9 km/h 71% 0.0 mm 591 W/m2
12:49 20.7 °C 15.3 °C 1021.0 hPa Calm   9.7 km/h 71% 0.0 mm 656 W/m2
12:54 20.9 °C 15.2 °C 1021.0 hPa NNW 1.4 km/h 12.9 km/h 70% 0.0 mm 659 W/m2
12:59 21.2 °C 15.3 °C 1021.0 hPa NNW 3.2 km/h 4.8 km/h 69% 0.0 mm 638 W/m2
13:04 21.2 °C 15.3 °C 1021.0 hPa NNW 6.4 km/h 14.5 km/h 69% 0.0 mm 497 W/m2
13:09 21.2 °C 15.3 °C 1021.0 hPa WNW 3.2 km/h 9.7 km/h 69% 0.0 mm 585 W/m2
13:14 21.2 °C 15.3 °C 1021.0 hPa East 3.2 km/h 14.5 km/h 69% 0.0 mm 543 W/m2
13:19 21.3 °C 15.4 °C 1021.0 hPa NNW 3.2 km/h 9.7 km/h 69% 0.0 mm 492 W/m2
13:24 21.3 °C 15.4 °C 1021.0 hPa East 3.2 km/h 6.4 km/h 69% 0.0 mm 508 W/m2
13:29 21.4 °C 15.5 °C 1021.0 hPa NE 3.2 km/h 9.7 km/h 69% 0.0 mm 459 W/m2
13:34 21.4 °C 15.2 °C 1020.7 hPa West 13 km/h 14.5 km/h 68% 0.0 mm 408 W/m2
13:39 21.1 °C 15.4 °C 1020.7 hPa Calm   9.7 km/h 70% 0.0 mm 387 W/m2
13:44 20.9 °C 15.2 °C 1020.7 hPa WSW 4.7 km/h 12.9 km/h 70% 0.0 mm 404 W/m2
13:49 20.9 °C 15.2 °C 1020.7 hPa NE 1.4 km/h 6.4 km/h 70% 0.0 mm 431 W/m2
13:54 21 °C 14.9 °C 1020.7 hPa NE 4.7 km/h 4.8 km/h 68% 0.0 mm 480 W/m2
13:59 21.2 °C 14.8 °C 1020.7 hPa East 1.4 km/h 12.9 km/h 67% 0.0 mm 462 W/m2
14:04 21.2 °C 14.6 °C 1020.7 hPa NNW 14.5 km/h 14.5 km/h 66% 0.0 mm 464 W/m2
14:09 21.2 °C 14.4 °C 1020.7 hPa North 4.7 km/h 14.5 km/h 65% 0.0 mm 497 W/m2
14:14 21.3 °C 14.2 °C 1020.7 hPa NE 6.4 km/h 8 km/h 64% 0.0 mm 459 W/m2
14:19 21.3 °C 14.7 °C 1020.7 hPa NW 3.2 km/h 14.5 km/h 66% 0.0 mm 431 W/m2
14:24 21.4 °C 14.8 °C 1020.7 hPa NNE 6.4 km/h 9.7 km/h 66% 0.0 mm 457 W/m2
14:29 21.5 °C 14.4 °C 1020.7 hPa North 3.2 km/h 8 km/h 64% 0.0 mm 452 W/m2
14:34 21.6 °C 14.3 °C 1020.7 hPa ENE 6.4 km/h 8 km/h 63% 0.0 mm 455 W/m2
14:39 21.7 °C 15.1 °C 1020.7 hPa NNE 3.2 km/h 14.5 km/h 66% 0.0 mm 446 W/m2
14:44 21.6 °C 15 °C 1020.7 hPa West 3.2 km/h 12.9 km/h 66% 0.0 mm 369 W/m2
14:49 21.6 °C 15 °C 1020.7 hPa North 3.2 km/h 14.5 km/h 66% 0.0 mm 369 W/m2
14:54 21.5 °C 14.9 °C 1020.7 hPa WNW 3.2 km/h 6.4 km/h 66% 0.0 mm 387 W/m2
14:59 21.4 °C 14.8 °C 1020.7 hPa WNW 3.2 km/h 6.4 km/h 66% 0.0 mm 422 W/m2
15:04 21.4 °C 15 °C 1020.7 hPa WNW 3.2 km/h 8 km/h 67% 0.0 mm 431 W/m2
15:09 21.4 °C 14.8 °C 1020.7 hPa Calm   8 km/h 66% 0.0 mm 401 W/m2
15:14 21.6 °C 15 °C 1020.7 hPa West 3.2 km/h 8 km/h 66% 0.0 mm 403 W/m2
15:19 21.6 °C 15 °C 1020.7 hPa NE 4.7 km/h 4.8 km/h 66% 0.0 mm 396 W/m2
15:25 21.7 °C 15.1 °C 1020.3 hPa NW 3.2 km/h 8 km/h 66% 0.0 mm 387 W/m2
15:30 21.6 °C 15 °C 1020.3 hPa NW 3.2 km/h 9.7 km/h 66% 0.0 mm 381 W/m2
15:35 21.4 °C 14.8 °C 1020.3 hPa West 4.7 km/h 9.7 km/h 66% 0.0 mm 360 W/m2
15:40 21.4 °C 15 °C 1020.7 hPa NNW 1.4 km/h 6.4 km/h 67% 0.0 mm 304 W/m2
15:45 21.5 °C 14.9 °C 1020.7 hPa West 3.2 km/h 9.7 km/h 66% 0.0 mm 279 W/m2
15:50 21.3 °C 14.7 °C 1020.7 hPa WNW 4.7 km/h 6.4 km/h 66% 0.0 mm 264 W/m2
15:55 21.3 °C 14.9 °C 1020.3 hPa WNW 1.4 km/h 4.8 km/h 67% 0.0 mm 255 W/m2
16:00 21.3 °C 14.7 °C 1020.3 hPa NNW 3.2 km/h 9.7 km/h 66% 0.0 mm 250 W/m2
16:05 21.2 °C 14.8 °C 1020.3 hPa Calm   4.8 km/h 67% 0.0 mm 250 W/m2
16:10 21.3 °C 14.7 °C 1020.3 hPa Calm   4.8 km/h 66% 0.0 mm 251 W/m2
16:15 21.4 °C 15.2 °C 1020.3 hPa ENE 3.2 km/h 4.8 km/h 68% 0.0 mm 251 W/m2
16:20 21.5 °C 14.6 °C 1020.3 hPa NW 1.4 km/h 12.9 km/h 65% 0.0 mm 255 W/m2
16:25 21.5 °C 14.9 °C 1020.3 hPa Calm   6.4 km/h 66% 0.0 mm 260 W/m2
16:30 21.5 °C 14.9 °C 1020.3 hPa WNW 3.2 km/h 12.9 km/h 66% 0.0 mm 255 W/m2
16:35 21.4 °C 14.5 °C 1020.3 hPa NNW 6.4 km/h 9.7 km/h 65% 0.0 mm 241 W/m2
16:40 21.4 °C 14.5 °C 1020.3 hPa ENE 3.2 km/h 6.4 km/h 65% 0.0 mm 248 W/m2
16:45 21.5 °C 14.9 °C 1020.0 hPa Calm   1.6 km/h 66% 0.0 mm 260 W/m2
16:50 21.6 °C 14.7 °C 1020.0 hPa West 1.4 km/h 11.3 km/h 65% 0.0 mm 241 W/m2
16:55 21.5 °C 14.6 °C 1020.0 hPa WNW 3.2 km/h 4.8 km/h 65% 0.0 mm 236 W/m2
17:00 21.4 °C 14.5 °C 1020.0 hPa North 3.2 km/h 6.4 km/h 65% 0.0 mm 234 W/m2
17:05 21.4 °C 14.5 °C 1020.0 hPa NNW 3.2 km/h 4.8 km/h 65% 0.0 mm 234 W/m2
17:10 21.4 °C 14.5 °C 1020.0 hPa ENE 6.4 km/h 6.4 km/h 65% 0.0 mm 206 W/m2
17:15 21.4 °C 14.5 °C 1020.0 hPa WNW 1.4 km/h 4.8 km/h 65% 0.0 mm 200 W/m2
17:20 21.4 °C 14.8 °C 1020.0 hPa WNW 3.2 km/h 6.4 km/h 66% 0.0 mm 186 W/m2
17:25 21.4 °C 14.8 °C 1020.0 hPa NNW 3.2 km/h 6.4 km/h 66% 0.0 mm 172 W/m2
17:30 21.4 °C 14.5 °C 1020.0 hPa NE 1.4 km/h 6.4 km/h 65% 0.0 mm 176 W/m2
17:35 21.4 °C 14.5 °C 1020.0 hPa East 1.4 km/h 3.2 km/h 65% 0.0 mm 167 W/m2
17:40 21.4 °C 14.5 °C 1020.0 hPa WSW 3.2 km/h 11.3 km/h 65% 0.0 mm 156 W/m2
17:45 21.3 °C 14.7 °C 1020.0 hPa West 3.2 km/h 6.4 km/h 66% 0.0 mm 155 W/m2
17:50 21.3 °C 14.9 °C 1020.0 hPa West 3.2 km/h 11.3 km/h 67% 0.0 mm 142 W/m2
17:55 21.2 °C 14.8 °C 1019.6 hPa North 1.4 km/h 6.4 km/h 67% 0.0 mm 132 W/m2
18:00 21.3 °C 14.9 °C 1019.6 hPa NNE 3.2 km/h 6.4 km/h 67% 0.0 mm 118 W/m2
18:05 21.3 °C 14.7 °C 1019.6 hPa West 3.2 km/h 4.8 km/h 66% 0.0 mm 107 W/m2
18:10 21.2 °C 14.6 °C 1019.6 hPa NNE 3.2 km/h 6.4 km/h 66% 0.0 mm 111 W/m2
18:15 21.2 °C 14.8 °C 1019.6 hPa West 3.2 km/h 6.4 km/h 67% 0.0 mm 118 W/m2
18:20 21.2 °C 15.1 °C 1019.6 hPa NNW 4.7 km/h 4.8 km/h 68% 0.0 mm 123 W/m2
18:25 21.2 °C 15.1 °C 1019.6 hPa NNW 1.4 km/h 6.4 km/h 68% 0.0 mm 118 W/m2
18:30 21.2 °C 15.1 °C 1019.6 hPa East 4.7 km/h 6.4 km/h 68% 0.0 mm 104 W/m2
18:35 21.2 °C 15.1 °C 1019.6 hPa ENE 1.4 km/h 8 km/h 68% 0.0 mm 118 W/m2
18:40 21.2 °C 15.1 °C 1019.6 hPa Calm   3.2 km/h 68% 0.0 mm 123 W/m2
18:45 21.2 °C 15.3 °C 1019.6 hPa Calm   1.6 km/h 69% 0.0 mm 114 W/m2
18:50 21.1 °C 15 °C 1019.6 hPa ENE 4.7 km/h 6.4 km/h 68% 0.0 mm 111 W/m2
18:55 21 °C 14.9 °C 1019.6 hPa NE 1.4 km/h 4.8 km/h 68% 0.0 mm 100 W/m2
19:00 20.9 °C 15 °C 1019.6 hPa North 4.7 km/h 4.8 km/h 69% 0.0 mm 86 W/m2
19:05 20.9 °C 15 °C 1019.6 hPa Calm   4.8 km/h 69% 0.0 mm 83 W/m2
19:10 20.9 °C 15 °C 1019.6 hPa NNE 1.4 km/h 3.2 km/h 69% 0.0 mm 72 W/m2
19:15 20.8 °C 14.9 °C 1019.6 hPa Calm   3.2 km/h 69% 0.0 mm 63 W/m2
19:20 20.8 °C 15.1 °C 1019.6 hPa Calm   1.6 km/h 70% 0.0 mm 54 W/m2
19:25 20.8 °C 15.1 °C 1020.0 hPa Calm   3.2 km/h 70% 0.0 mm 46 W/m2
19:30 20.7 °C 15 °C 1020.0 hPa ENE 1.4 km/h 3.2 km/h 70% 0.0 mm 47 W/m2
19:35 20.7 °C 15 °C 1020.0 hPa NE 1.4 km/h 3.2 km/h 70% 0.0 mm 49 W/m2
19:40 20.7 °C 15 °C 1020.0 hPa East 3.2 km/h 4.8 km/h 70% 0.0 mm 39 W/m2
19:45 20.6 °C 15.2 °C 1020.0 hPa Calm   1.6 km/h 71% 0.0 mm 39 W/m2
19:50 20.6 °C 14.9 °C 1020.0 hPa NNE 1.4 km/h 3.2 km/h 70% 0.0 mm 46 W/m2
19:55 20.6 °C 15.2 °C 1020.0 hPa Calm   1.6 km/h 71% 0.0 mm 42 W/m2
20:00 20.5 °C 15.1 °C 1020.0 hPa ENE 6.4 km/h 6.4 km/h 71% 0.0 mm 35 W/m2
20:05 20.4 °C 15 °C 1020.0 hPa Calm   1.6 km/h 71% 0.0 mm 26 W/m2
20:10 20.3 °C 14.9 °C 1020.0 hPa East 1.4 km/h 3.2 km/h 71% 0.0 mm 19 W/m2
20:15 20.3 °C 14.9 °C 1020.0 hPa ESE 1.4 km/h 3.2 km/h 71% 0.0 mm 18 W/m2
20:20 20.2 °C 15 °C 1020.0 hPa ESE 1.4 km/h 4.8 km/h 72% 0.0 mm 14 W/m2
20:25 20.1 °C 14.9 °C 1020.0 hPa NNE 3.2 km/h 3.2 km/h 72% 0.0 mm 14 W/m2
20:30 20 °C 14.8 °C 1020.0 hPa Calm   4.8 km/h 72% 0.0 mm 11 W/m2
20:35 19.9 °C 14.9 °C 1020.0 hPa NE 1.4 km/h 1.6 km/h 73% 0.0 mm 9 W/m2
20:40 19.9 °C 14.9 °C 1020.0 hPa Calm   4.8 km/h 73% 0.0 mm 7 W/m2
20:45 19.8 °C 14.8 °C 1020.0 hPa NE 1.4 km/h 4.8 km/h 73% 0.0 mm 5 W/m2
20:50 19.8 °C 14.6 °C 1020.0 hPa North 1.4 km/h 6.4 km/h 72% 0.0 mm 5 W/m2
20:55 19.7 °C 14.7 °C 1020.3 hPa East 1.4 km/h 4.8 km/h 73% 0.0 mm 5 W/m2
21:00 19.6 °C 14.6 °C 1020.3 hPa Calm     73% 0.0 mm 5 W/m2
21:05 19.6 °C 14.8 °C 1020.3 hPa Calm   1.6 km/h 74% 0.0 mm 7 W/m2
21:10 19.5 °C 14.5 °C 1020.3 hPa Calm   3.2 km/h 73% 0.0 mm 9 W/m2
21:15 19.4 °C 14.6 °C 1020.3 hPa Calm   3.2 km/h 74% 0.0 mm 9 W/m2
21:20 19.4 °C 14.6 °C 1020.7 hPa NE 3.2 km/h 4.8 km/h 74% 0.0 mm 5 W/m2
21:25 19.4 °C 14.6 °C 1020.7 hPa NE 1.4 km/h 1.6 km/h 74% 0.0 mm 5 W/m2
21:30 19.4 °C 14.6 °C 1020.7 hPa Calm     74% 0.0 mm 0 W/m2
21:35 19.4 °C 14.6 °C 1020.7 hPa NNW 3.2 km/h 3.2 km/h 74% 0.0 mm 0 W/m2
21:40 19.3 °C 14.8 °C 1020.7 hPa North 1.4 km/h 4.8 km/h 75% 0.0 mm 0 W/m2
21:45 19.3 °C 14.8 °C 1020.7 hPa Calm   4.8 km/h 75% 0.0 mm 0 W/m2
21:50 19.3 °C 15 °C 1020.7 hPa ENE 1.4 km/h 3.2 km/h 76% 0.0 mm 0 W/m2
21:55 19.2 °C 14.9 °C 1021.0 hPa ENE 1.4 km/h 1.6 km/h 76% 0.0 mm 0 W/m2
22:00 19.2 °C 15.1 °C 1021.0 hPa NNE 1.4 km/h 3.2 km/h 77% 0.0 mm 0 W/m2
22:05 19.1 °C 15 °C 1021.0 hPa Calm   4.8 km/h 77% 0.0 mm 0 W/m2
22:10 19 °C 14.9 °C 1021.0 hPa North 1.4 km/h 4.8 km/h 77% 0.0 mm 0 W/m2
22:15 18.9 °C 15 °C 1021.0 hPa NE 1.4 km/h 6.4 km/h 78% 0.0 mm 0 W/m2
22:20 18.8 °C 14.9 °C 1021.0 hPa Calm   4.8 km/h 78% 0.0 mm 0 W/m2
22:25 18.8 °C 14.9 °C 1021.0 hPa Calm   3.2 km/h 78% 0.0 mm 0 W/m2
22:30 18.8 °C 14.9 °C 1021.3 hPa Calm   1.6 km/h 78% 0.0 mm 0 W/m2
22:35 18.7 °C 14.8 °C 1021.0 hPa East 1.4 km/h 3.2 km/h 78% 0.0 mm 0 W/m2
22:40 18.7 °C 14.8 °C 1021.3 hPa Calm   1.6 km/h 78% 0.0 mm 0 W/m2
22:45 18.7 °C 14.8 °C 1021.3 hPa ESE 1.4 km/h 4.8 km/h 78% 0.0 mm 0 W/m2
22:50 18.6 °C 14.7 °C 1021.0 hPa NNE 1.4 km/h 4.8 km/h 78% 0.0 mm 0 W/m2
22:55 18.5 °C 14.8 °C 1021.0 hPa Calm   1.6 km/h 79% 0.0 mm 0 W/m2
23:00 18.5 °C 14.8 °C 1021.0 hPa East 1.4 km/h 1.6 km/h 79% 0.0 mm 0 W/m2
23:05 18.4 °C 14.7 °C 1021.0 hPa East 3.2 km/h 3.2 km/h 79% 0.0 mm 0 W/m2
23:10 18.4 °C 14.7 °C 1021.0 hPa Calm     79% 0.0 mm 0 W/m2
23:15 18.3 °C 14.6 °C 1021.0 hPa SSW 1.4 km/h 4.8 km/h 79% 0.0 mm 0 W/m2
23:20 18.3 °C 14.6 °C 1021.0 hPa NW 1.4 km/h 3.2 km/h 79% 0.0 mm 0 W/m2
23:25 18.2 °C 14.5 °C 1021.0 hPa Calm   4.8 km/h 79% 0.0 mm 0 W/m2
23:31 18.2 °C 14.7 °C 1021.0 hPa ENE 1.4 km/h 4.8 km/h 80% 0.0 mm 0 W/m2
23:36 18.2 °C 14.7 °C 1021.0 hPa NE 3.2 km/h 4.8 km/h 80% 0.0 mm 0 W/m2
23:41 18.1 °C 14.8 °C 1021.0 hPa Calm   3.2 km/h 81% 0.0 mm 0 W/m2
23:46 18.1 °C 14.8 °C 1021.0 hPa NE 1.4 km/h 3.2 km/h 81% 0.0 mm 0 W/m2
23:51 18 °C 14.9 °C 1021.0 hPa Calm   4.8 km/h 82% 0.0 mm 0 W/m2
23:56 18 °C 14.9 °C 1021.0 hPa Calm   3.2 km/h 82% 0.0 mm 0 W/m2
Juneau County Weather
Compliments of Weather Underground - 4 mb